When you browse on this site, cookies collect data to enhance your experience and personalize the content and advertising you see.
Visit our Privacy Policy to learn more. By continuing to use the site, you agree to this use of cookies and data.
  • In Österreich
  • Länderverzeichnis
  • Für 7 Tage
  • Wassertemperatur
  • Wetterkarte
  • News
  • Widgets
  • user-avatar
    Anmelden

    Stündliche Wetter Sölden

    Heute, 21 Februar, Freitag

    Zeit Temperatur Niederschläge Wind Luftdruck Luftfeuchtigkeit
    00:00 -7°C° 0 mm 1 m/S 580 mmHg 61%
    01:00 -7°C° 0 mm 1 m/S 580 mmHg 56%
    02:00 -7°C° 0 mm 1 m/S 580 mmHg 56%
    03:00 -8°C° 0 mm 2 m/S 580 mmHg 57%
    04:00 -8°C° 0 mm 2 m/S 581 mmHg 57%
    05:00 -8°C° 0 mm 2 m/S 581 mmHg 61%
    06:00 -8°C° 0 mm 2 m/S 581 mmHg 65%
    07:00 -9°C° 0 mm 3 m/S 582 mmHg 70%
    14:00 -2°C° 0 mm 2 m/S 586 mmHg 54%
    15:00 -2°C° 0 mm 2 m/S 586 mmHg 55%
    16:00 -2°C° 0 mm 2 m/S 586 mmHg 57%
    17:00 -4°C° 0 mm 2 m/S 585 mmHg 59%
    18:00 -6°C° 0 mm 2 m/S 585 mmHg 61%
    19:00 -7°C° 0 mm 2 m/S 585 mmHg 63%
    20:00 -7°C° 0 mm 2 m/S 585 mmHg 60%
    21:00 -6°C° 0 mm 1 m/S 585 mmHg 56%
    22:00 -6°C° 0 mm 1 m/S 585 mmHg 52%
    23:00 -6°C° 0 mm 1 m/S 585 mmHg 52%

    Morgen, 22 Februar, Samstag

    Zeit Temperatur Niederschläge Wind Luftdruck Luftfeuchtigkeit
    00:00 -6°C° 0 mm 1 m/S 585 mmHg 51%
    01:00 -6°C° 0 mm 1 m/S 585 mmHg 51%
    02:00 -6°C° 0 mm 1 m/S 585 mmHg 51%
    03:00 -6°C° 0 mm 1 m/S 585 mmHg 51%
    04:00 -6°C° 0 mm 1 m/S 585 mmHg 51%
    05:00 -6°C° 0 mm 1 m/S 585 mmHg 51%
    06:00 -6°C° 0 mm 1 m/S 585 mmHg 51%
    07:00 -6°C° 0 mm 1 m/S 586 mmHg 51%
    08:00 -3°C° 0 mm 1 m/S 587 mmHg 52%
    09:00 -1°C° 0 mm 1 m/S 587 mmHg 53%
    10:00 -1°C° 0 mm 0 m/S 588 mmHg 54%
    11:00 +1°C° 0 mm 1 m/S 588 mmHg 55%
    12:00 +2°C° 0 mm 1 m/S 589 mmHg 57%
    13:00 +3°C° 0 mm 1 m/S 589 mmHg 58%
    14:00 +3°C° 0 mm 1 m/S 589 mmHg 60%
    15:00 +3°C° 0 mm 1 m/S 588 mmHg 61%
    16:00 +2°C° 0 mm 1 m/S 588 mmHg 62%
    17:00 +1°C° 0 mm 1 m/S 587 mmHg 62%
    18:00 0°C° 0 mm 1 m/S 587 mmHg 61%
    19:00 -1°C° 0 mm 1 m/S 587 mmHg 60%
    20:00 -1°C° 0 mm 1 m/S 587 mmHg 58%
    21:00 -1°C° 0 mm 1 m/S 587 mmHg 56%
    22:00 -1°C° 0 mm 1 m/S 587 mmHg 54%
    23:00 -2°C° 0 mm 1 m/S 587 mmHg 53%

    übermorgen, 23 Februar, Sonntag

    Zeit Temperatur Niederschläge Wind Luftdruck Luftfeuchtigkeit
    00:00 -2°C° 0 mm 1 m/S 587 mmHg 52%
    01:00 -2°C° 0 mm 1 m/S 587 mmHg 51%
    02:00 -4°C° 0 mm 2 m/S 586 mmHg 51%
    03:00 -4°C° 0 mm 2 m/S 586 mmHg 51%
    04:00 -4°C° 0 mm 2 m/S 586 mmHg 51%
    05:00 -4°C° 0 mm 2 m/S 586 mmHg 53%
    06:00 -4°C° 0 mm 2 m/S 586 mmHg 55%
    07:00 -4°C° 0 mm 2 m/S 586 mmHg 57%
    08:00 -2°C° 0 mm 2 m/S 586 mmHg 58%
    09:00 -1°C° 0 mm 2 m/S 587 mmHg 60%
    10:00 +3°C° 0 mm 1 m/S 588 mmHg 61%
    11:00 +4°C° 0 mm 1 m/S 588 mmHg 62%
    12:00 +4°C° 0 mm 1 m/S 588 mmHg 63%
    13:00 +5°C° 0 mm 1 m/S 588 mmHg 64%
    14:00 +5°C° 0 mm 1 m/S 587 mmHg 67%
    15:00 +5°C° 0 mm 1 m/S 587 mmHg 71%
    16:00 +5°C° 0 mm 1 m/S 586 mmHg 74%
    17:00 +2°C° 0.1 mm 2 m/S 586 mmHg 78%
    18:00 +1°C° 0.1 mm 2 m/S 585 mmHg 82%
    19:00 -1°C° 0.1 mm 2 m/S 585 mmHg 86%
    20:00 -1°C° 0 mm 2 m/S 585 mmHg 86%
    21:00 -1°C° 0 mm 2 m/S 585 mmHg 86%
    22:00 -1°C° 0 mm 2 m/S 584 mmHg 85%
    23:00 -2°C° 0 mm 2 m/S 584 mmHg 86%

    24 Februar, Montag

    Zeit Temperatur Niederschläge Wind Luftdruck Luftfeuchtigkeit
    00:00 -2°C° 0 mm 2 m/S 584 mmHg 87%
    01:00 -2°C° 0 mm 2 m/S 584 mmHg 88%
    02:00 -2°C° 0 mm 2 m/S 584 mmHg 87%
    03:00 -2°C° 0 mm 3 m/S 583 mmHg 87%
    04:00 -2°C° 0 mm 3 m/S 583 mmHg 87%
    05:00 -2°C° 0.1 mm 3 m/S 583 mmHg 87%
    06:00 -2°C° 0.1 mm 3 m/S 583 mmHg 88%
    07:00 -2°C° 0.1 mm 3 m/S 584 mmHg 88%
    08:00 -1°C° 0.1 mm 2 m/S 584 mmHg 84%
    09:00 +1°C° 0.1 mm 2 m/S 585 mmHg 80%
    10:00 +2°C° 0.1 mm 2 m/S 586 mmHg 77%
    11:00 +3°C° 0 mm 2 m/S 586 mmHg 74%
    12:00 +5°C° 0 mm 1 m/S 586 mmHg 71%
    13:00 +6°C° 0 mm 1 m/S 587 mmHg 68%
    14:00 +6°C° 0 mm 1 m/S 586 mmHg 68%
    15:00 +5°C° 0 mm 1 m/S 586 mmHg 69%
    16:00 +5°C° 0 mm 1 m/S 585 mmHg 69%
    17:00 +4°C° 0 mm 1 m/S 584 mmHg 70%
    18:00 +2°C° 0 mm 1 m/S 584 mmHg 71%
    19:00 +1°C° 0 mm 1 m/S 583 mmHg 72%
    20:00 0°C° 0 mm 1 m/S 583 mmHg 74%
    21:00 0°C° 0 mm 1 m/S 582 mmHg 75%
    22:00 -1°C° 0 mm 1 m/S 582 mmHg 76%
    23:00 -2°C° 0 mm 0 m/S 582 mmHg 77%

    25 Februar, Dienstag

    Zeit Temperatur Niederschläge Wind Luftdruck Luftfeuchtigkeit
    00:00 -2°C° 0 mm 0 m/S 581 mmHg 78%
    01:00 -3°C° 0 mm 0 m/S 581 mmHg 79%
    02:00 -3°C° 0 mm 0 m/S 581 mmHg 79%
    03:00 -3°C° 0 mm 0 m/S 580 mmHg 79%
    04:00 -3°C° 0 mm 0 m/S 580 mmHg 80%
    05:00 -3°C° 0 mm 0 m/S 580 mmHg 80%
    06:00 -3°C° 0 mm 0 m/S 579 mmHg 81%
    07:00 -3°C° 0 mm 0 m/S 579 mmHg 81%
    08:00 -3°C° 0 mm 0 m/S 579 mmHg 81%
    09:00 -2°C° 0 mm 0 m/S 579 mmHg 81%
    10:00 0°C° 0 mm 1 m/S 579 mmHg 80%
    11:00 0°C° 0 mm 1 m/S 579 mmHg 81%
    12:00 0°C° 0 mm 1 m/S 579 mmHg 82%
    13:00 +1°C° 0 mm 1 m/S 579 mmHg 83%
    14:00 +1°C° 0 mm 1 m/S 578 mmHg 84%
    15:00 0°C° 0 mm 1 m/S 577 mmHg 85%
    16:00 -1°C° 0 mm 0 m/S 577 mmHg 86%
    17:00 -1°C° 0 mm 0 m/S 576 mmHg 88%
    18:00 -2°C° 0 mm 0 m/S 576 mmHg 90%
    19:00 -2°C° 0 mm 0 m/S 576 mmHg 93%
    20:00 -3°C° 0 mm 0 m/S 576 mmHg 93%
    21:00 -3°C° 0 mm 0 m/S 575 mmHg 92%
    22:00 -3°C° 0 mm 0 m/S 575 mmHg 92%
    23:00 -3°C° 0 mm 1 m/S 575 mmHg 91%

    26 Februar, Mittwoch

    Zeit Temperatur Niederschläge Wind Luftdruck Luftfeuchtigkeit
    00:00 -3°C° 0 mm 1 m/S 574 mmHg 90%
    01:00 -3°C° 0 mm 1 m/S 574 mmHg 88%
    02:00 -3°C° 0 mm 1 m/S 573 mmHg 88%
    03:00 -3°C° 0 mm 1 m/S 573 mmHg 87%
    04:00 -4°C° 0 mm 1 m/S 573 mmHg 87%
    05:00 -4°C° 0 mm 1 m/S 572 mmHg 86%
    06:00 -4°C° 0 mm 1 m/S 572 mmHg 86%
    07:00 -4°C° 0 mm 1 m/S 571 mmHg 85%
    08:00 -3°C° 0 mm 1 m/S 572 mmHg 77%
    09:00 -4°C° 0 mm 2 m/S 572 mmHg 69%
    10:00 -3°C° 0 mm 2 m/S 573 mmHg 60%
    11:00 -4°C° 0.3 mm 3 m/S 573 mmHg 56%
    12:00 -4°C° 0.3 mm 4 m/S 573 mmHg 52%
    13:00 -5°C° 0.3 mm 5 m/S 573 mmHg 48%
    14:00 -6°C° 0.2 mm 6 m/S 572 mmHg 46%
    15:00 -8°C° 0.2 mm 6 m/S 572 mmHg 45%
    16:00 -10°C° 0.2 mm 6 m/S 572 mmHg 44%
    17:00 -10°C° 0 mm 4 m/S 571 mmHg 48%
    18:00 -10°C° 0 mm 3 m/S 571 mmHg 51%
    19:00 -9°C° 0 mm 1 m/S 571 mmHg 55%
    20:00 -10°C° 0.3 mm 2 m/S 571 mmHg 58%
    21:00 -10°C° 0.3 mm 2 m/S 572 mmHg 61%
    22:00 -10°C° 0.3 mm 2 m/S 572 mmHg 65%
    23:00 -12°C° 0.2 mm 2 m/S 572 mmHg 63%
    Mehr zeigen